contact:dominique.lefevre@mio.osupytheas.fr, maurice.libes@osupytheas.fr, didier.mallarino@osupytheas.fr
Project:EMSO http://www.emso-fr.org/EMSO-France
Depth: 2436.0 m
Title:EMSO Ligure Ouest : Data MII capteur CSTAR
DateTime,Latitude,Longitude,Instrument_Serial,Reference_Counts,Signal_Counts,Corrected_Signal_raw_counts,Calculated_Beam_c_inverse_meters,Internal_thermistor_counts
DateTime,Latitude,Longitude,Instrument_Serial,Reference_Counts,Signal_Counts,Corrected_Signal_raw_counts,Calculated_Beam_c_inverse_meters,Internal_thermistor_counts
2021-12-02T00:01:01,42.805,6.029,CST-1368DR,5050,6560,13890,0.469,551
2021-12-02T00:04:03,42.805,6.029,CST-1368DR,5050,6561,13892,0.468,551
2021-12-02T00:07:05,42.805,6.029,CST-1368DR,5050,6560,13890,0.469,551
2021-12-02T00:10:06,42.805,6.029,CST-1368DR,5050,6561,13891,0.468,551
2021-12-02T00:13:08,42.805,6.029,CST-1368DR,5050,6560,13890,0.469,551
2021-12-02T00:16:09,42.805,6.029,CST-1368DR,5050,6562,13893,0.468,551
2021-12-02T00:19:11,42.805,6.029,CST-1368DR,5050,6561,13892,0.468,551
2021-12-02T00:22:13,42.805,6.029,CST-1368DR,5050,6561,13892,0.468,551
2021-12-02T00:25:14,42.805,6.029,CST-1368DR,5050,6562,13894,0.467,551
2021-12-02T00:28:16,42.805,6.029,CST-1368DR,5050,6562,13893,0.468,551
2021-12-02T00:31:17,42.805,6.029,CST-1368DR,5050,6561,13892,0.468,551
2021-12-02T00:34:19,42.805,6.029,CST-1368DR,5050,6562,13893,0.468,551
2021-12-02T00:37:20,42.805,6.029,CST-1368DR,5050,6561,13892,0.468,551
2021-12-02T00:40:22,42.805,6.029,CST-1368DR,5050,6561,13892,0.468,551
2021-12-02T00:43:24,42.805,6.029,CST-1368DR,5050,6559,13888,0.469,551
2021-12-02T00:46:25,42.805,6.029,CST-1368DR,5050,6561,13893,0.468,551
2021-12-02T00:49:27,42.805,6.029,CST-1368DR,5050,6562,13894,0.467,551
2021-12-02T00:52:28,42.805,6.029,CST-1368DR,5050,6561,13893,0.468,551
2021-12-02T00:55:30,42.805,6.029,CST-1368DR,5050,6562,13894,0.467,551
2021-12-02T00:58:32,42.805,6.029,CST-1368DR,5050,6561,13892,0.468,551
2021-12-02T01:01:33,42.805,6.029,CST-1368DR,5050,6562,13893,0.468,551
2021-12-02T01:04:35,42.805,6.029,CST-1368DR,5050,6562,13893,0.468,551
2021-12-02T01:07:36,42.805,6.029,CST-1368DR,5050,6561,13893,0.468,551
2021-12-02T01:10:38,42.805,6.029,CST-1368DR,5050,6561,13892,0.468,551
2021-12-02T01:13:39,42.805,6.029,CST-1368DR,5050,6561,13892,0.468,551
2021-12-02T01:16:41,42.805,6.029,CST-1368DR,5050,6561,13893,0.468,551
2021-12-02T01:19:43,42.805,6.029,CST-1368DR,5050,6561,13892,0.468,551
2021-12-02T01:22:44,42.805,6.029,CST-1368DR,5050,6561,13893,0.468,551
2021-12-02T01:25:46,42.805,6.029,CST-1368DR,5050,6561,13893,0.468,551
2021-12-02T01:28:47,42.805,6.029,CST-1368DR,5050,6561,13892,0.468,551
2021-12-02T01:31:49,42.805,6.029,CST-1368DR,5050,6560,13890,0.469,551
2021-12-02T01:34:50,42.805,6.029,CST-1368DR,5050,6562,13894,0.467,551
2021-12-02T01:37:52,42.805,6.029,CST-1368DR,5050,6561,13892,0.468,551
2021-12-02T01:40:54,42.805,6.029,CST-1368DR,5050,6561,13892,0.468,551
2021-12-02T01:43:55,42.805,6.029,CST-1368DR,5050,6562,13893,0.468,551
2021-12-02T01:46:57,42.805,6.029,CST-1368DR,5050,6562,13894,0.467,551
2021-12-02T01:49:58,42.805,6.029,CST-1368DR,5050,6561,13893,0.468,551
2021-12-02T01:53:00,42.805,6.029,CST-1368DR,5050,6562,13894,0.467,551
2021-12-02T01:56:02,42.805,6.029,CST-1368DR,5050,6561,13892,0.468,551
2021-12-02T01:59:03,42.805,6.029,CST-1368DR,5050,6562,13895,0.467,551
2021-12-02T02:02:05,42.805,6.029,CST-1368DR,5050,6560,13890,0.469,551
2021-12-02T02:05:06,42.805,6.029,CST-1368DR,5050,6562,13894,0.467,551
2021-12-02T02:08:08,42.805,6.029,CST-1368DR,5050,6562,13894,0.467,551
2021-12-02T02:11:09,42.805,6.029,CST-1368DR,5050,6562,13895,0.467,551
2021-12-02T02:14:11,42.805,6.029,CST-1368DR,5050,6562,13894,0.467,551
2021-12-02T02:17:13,42.805,6.029,CST-1368DR,5050,6561,13892,0.468,551
2021-12-02T02:20:14,42.805,6.029,CST-1368DR,5050,6561,13892,0.468,551
2021-12-02T02:23:16,42.805,6.029,CST-1368DR,5050,6562,13894,0.467,551
2021-12-02T02:26:17,42.805,6.029,CST-1368DR,5050,6562,13894,0.467,551
2021-12-02T02:29:19,42.805,6.029,CST-1368DR,5050,6562,13894,0.467,551
2021-12-02T02:32:21,42.805,6.029,CST-1368DR,5050,6562,13895,0.467,551
2021-12-02T02:35:22,42.805,6.029,CST-1368DR,5050,6562,13894,0.467,551
2021-12-02T02:38:24,42.805,6.029,CST-1368DR,5050,6562,13894,0.467,551
2021-12-02T02:41:25,42.805,6.029,CST-1368DR,5050,6563,13896,0.467,551
2021-12-02T02:44:27,42.805,6.029,CST-1368DR,5050,6562,13894,0.467,551
2021-12-02T02:47:28,42.805,6.029,CST-1368DR,5050,6563,13896,0.467,551
2021-12-02T02:50:30,42.805,6.029,CST-1368DR,5050,6562,13895,0.467,551
2021-12-02T02:53:32,42.805,6.029,CST-1368DR,5050,6563,13895,0.467,551
2021-12-02T02:56:33,42.805,6.029,CST-1368DR,5050,6563,13895,0.467,551
2021-12-02T02:59:35,42.805,6.029,CST-1368DR,5050,6563,13896,0.467,551
2021-12-02T03:02:36,42.805,6.029,CST-1368DR,5050,6562,13893,0.468,551
2021-12-02T03:05:38,42.805,6.029,CST-1368DR,5050,6564,13897,0.466,551
2021-12-02T03:08:39,42.805,6.029,CST-1368DR,5050,6563,13895,0.467,551
2021-12-02T03:11:41,42.805,6.029,CST-1368DR,5050,6563,13896,0.467,551
2021-12-02T03:14:43,42.805,6.029,CST-1368DR,5050,6563,13897,0.466,551
2021-12-02T03:17:44,42.805,6.029,CST-1368DR,5050,6563,13896,0.467,551
2021-12-02T03:20:46,42.805,6.029,CST-1368DR,5050,6564,13899,0.466,551
2021-12-02T03:23:47,42.805,6.029,CST-1368DR,5050,6564,13897,0.466,551
2021-12-02T03:26:49,42.805,6.029,CST-1368DR,5050,6564,13899,0.466,551
2021-12-02T03:29:51,42.805,6.029,CST-1368DR,5050,6563,13895,0.467,551
2021-12-02T03:32:52,42.805,6.029,CST-1368DR,5050,6564,13897,0.466,551
2021-12-02T03:35:54,42.805,6.029,CST-1368DR,5050,6563,13896,0.467,551
2021-12-02T03:38:55,42.805,6.029,CST-1368DR,5050,6563,13896,0.467,551
2021-12-02T03:41:57,42.805,6.029,CST-1368DR,5050,6564,13899,0.466,551
2021-12-02T03:44:58,42.805,6.029,CST-1368DR,5050,6564,13899,0.466,551
2021-12-02T03:48:00,42.805,6.029,CST-1368DR,5050,6563,13897,0.466,551
2021-12-02T03:51:02,42.805,6.029,CST-1368DR,5050,6563,13897,0.466,551
2021-12-02T03:54:03,42.805,6.029,CST-1368DR,5050,6563,13897,0.466,551
2021-12-02T03:57:05,42.805,6.029,CST-1368DR,5050,6563,13897,0.466,551
2021-12-02T04:00:06,42.805,6.029,CST-1368DR,5050,6564,13897,0.466,551
2021-12-02T04:03:08,42.805,6.029,CST-1368DR,5050,6563,13897,0.466,551
2021-12-02T04:06:10,42.805,6.029,CST-1368DR,5050,6563,13897,0.466,551
2021-12-02T04:09:11,42.805,6.029,CST-1368DR,5050,6564,13897,0.466,551
2021-12-02T04:12:13,42.805,6.029,CST-1368DR,5050,6563,13897,0.466,550
2021-12-02T04:15:14,42.805,6.029,CST-1368DR,5050,6564,13897,0.466,551
2021-12-02T04:18:16,42.805,6.029,CST-1368DR,5050,6563,13896,0.467,551
2021-12-02T04:21:17,42.805,6.029,CST-1368DR,5050,6564,13897,0.466,551
2021-12-02T04:24:19,42.805,6.029,CST-1368DR,5050,6564,13897,0.466,551
2021-12-02T04:27:21,42.805,6.029,CST-1368DR,5050,6562,13895,0.467,551
2021-12-02T04:30:22,42.805,6.029,CST-1368DR,5050,6563,13896,0.467,551
2021-12-02T04:33:24,42.805,6.029,CST-1368DR,5050,6564,13897,0.466,551
2021-12-02T04:36:25,42.805,6.029,CST-1368DR,5050,6560,13890,0.469,551
2021-12-02T04:39:27,42.805,6.029,CST-1368DR,5050,6563,13896,0.467,551
2021-12-02T04:42:29,42.805,6.029,CST-1368DR,5050,6562,13895,0.467,551
2021-12-02T04:45:30,42.805,6.029,CST-1368DR,5050,6564,13897,0.466,551
2021-12-02T04:48:32,42.805,6.029,CST-1368DR,5050,6563,13897,0.466,551
2021-12-02T04:51:33,42.805,6.029,CST-1368DR,5050,6563,13897,0.466,551
2021-12-02T04:54:35,42.805,6.029,CST-1368DR,5050,6564,13897,0.466,551
2021-12-02T04:57:36,42.805,6.029,CST-1368DR,5050,6563,13897,0.466,551
2021-12-02T05:00:38,42.805,6.029,CST-1368DR,5050,6563,13897,0.466,551
2021-12-02T05:03:40,42.805,6.029,CST-1368DR,5050,6563,13896,0.467,550
2021-12-02T05:06:41,42.805,6.029,CST-1368DR,5050,6563,13895,0.467,551
2021-12-02T05:09:43,42.805,6.029,CST-1368DR,5050,6563,13896,0.467,551
2021-12-02T05:12:44,42.805,6.029,CST-1368DR,5050,6563,13897,0.466,551
2021-12-02T05:15:46,42.805,6.029,CST-1368DR,5050,6563,13897,0.466,551
2021-12-02T05:18:47,42.805,6.029,CST-1368DR,5050,6564,13899,0.466,551
2021-12-02T05:21:49,42.805,6.029,CST-1368DR,5050,6563,13896,0.467,551
2021-12-02T05:24:51,42.805,6.029,CST-1368DR,5050,6563,13896,0.467,551
2021-12-02T05:27:52,42.805,6.029,CST-1368DR,5050,6564,13899,0.466,551
2021-12-02T05:30:54,42.805,6.029,CST-1368DR,5050,6564,13899,0.466,551
2021-12-02T05:33:55,42.805,6.029,CST-1368DR,5050,6563,13896,0.467,551
2021-12-02T05:36:57,42.805,6.029,CST-1368DR,5050,6564,13897,0.466,550
2021-12-02T05:39:59,42.805,6.029,CST-1368DR,5050,6563,13896,0.467,551
2021-12-02T05:43:00,42.805,6.029,CST-1368DR,5050,6563,13895,0.467,551
2021-12-02T05:46:02,42.805,6.029,CST-1368DR,5050,6563,13897,0.466,551
2021-12-02T05:49:03,42.805,6.029,CST-1368DR,5050,6563,13896,0.467,551
2021-12-02T05:52:05,42.805,6.029,CST-1368DR,5050,6563,13896,0.467,551
2021-12-02T05:55:06,42.805,6.029,CST-1368DR,5050,6562,13894,0.467,551
2021-12-02T05:58:08,42.805,6.029,CST-1368DR,5050,6563,13896,0.467,551
2021-12-02T06:01:10,42.805,6.029,CST-1368DR,5050,6563,13897,0.466,551
2021-12-02T06:04:11,42.805,6.029,CST-1368DR,5050,6563,13896,0.467,551
2021-12-02T06:07:13,42.805,6.029,CST-1368DR,5050,6563,13897,0.466,551
2021-12-02T06:10:14,42.805,6.029,CST-1368DR,5050,6563,13896,0.467,551
2021-12-02T06:13:16,42.805,6.029,CST-1368DR,5050,6563,13896,0.467,551
2021-12-02T06:16:18,42.805,6.029,CST-1368DR,5050,6563,13896,0.467,551
2021-12-02T06:19:19,42.805,6.029,CST-1368DR,5050,6563,13896,0.467,551
2021-12-02T06:22:21,42.805,6.029,CST-1368DR,5050,6563,13896,0.467,551
2021-12-02T06:25:22,42.805,6.029,CST-1368DR,5050,6563,13897,0.466,551
2021-12-02T06:28:24,42.805,6.029,CST-1368DR,5050,6563,13896,0.467,551
2021-12-02T06:31:25,42.805,6.029,CST-1368DR,5050,6562,13894,0.467,551
2021-12-02T06:34:27,42.805,6.029,CST-1368DR,5050,6562,13894,0.467,551
2021-12-02T06:37:29,42.805,6.029,CST-1368DR,5050,6563,13895,0.467,551
2021-12-02T06:40:30,42.805,6.029,CST-1368DR,5050,6562,13894,0.467,551
2021-12-02T06:43:32,42.805,6.029,CST-1368DR,5050,6563,13895,0.467,551
2021-12-02T06:46:33,42.805,6.029,CST-1368DR,5050,6561,13893,0.468,551
2021-12-02T06:49:35,42.805,6.029,CST-1368DR,5050,6563,13895,0.467,551
2021-12-02T06:52:36,42.805,6.029,CST-1368DR,5050,6563,13895,0.467,551
2021-12-02T06:55:38,42.805,6.029,CST-1368DR,5050,6562,13894,0.467,551
2021-12-02T06:58:40,42.805,6.029,CST-1368DR,5050,6560,13889,0.469,551
2021-12-02T07:01:41,42.805,6.029,CST-1368DR,5050,6560,13890,0.469,551
2021-12-02T07:04:43,42.805,6.029,CST-1368DR,5050,6562,13895,0.467,551
2021-12-02T07:07:44,42.805,6.029,CST-1368DR,5050,6562,13893,0.468,551
2021-12-02T07:10:46,42.805,6.029,CST-1368DR,5050,6562,13894,0.467,551
2021-12-02T07:13:48,42.805,6.029,CST-1368DR,5050,6562,13894,0.467,551
2021-12-02T07:16:49,42.805,6.029,CST-1368DR,5050,6562,13895,0.467,551
2021-12-02T07:19:51,42.805,6.029,CST-1368DR,5050,6562,13893,0.468,551
2021-12-02T07:22:52,42.805,6.029,CST-1368DR,5050,6562,13894,0.467,551
2021-12-02T07:25:54,42.805,6.029,CST-1368DR,5050,6562,13894,0.467,551
2021-12-02T07:28:55,42.805,6.029,CST-1368DR,5050,6563,13895,0.467,551
2021-12-02T07:31:57,42.805,6.029,CST-1368DR,5050,6562,13895,0.467,551
2021-12-02T07:34:59,42.805,6.029,CST-1368DR,5050,6563,13895,0.467,551
2021-12-02T07:38:00,42.805,6.029,CST-1368DR,5050,6562,13894,0.467,551
2021-12-02T07:41:02,42.805,6.029,CST-1368DR,5050,6563,13895,0.467,551
2021-12-02T07:44:03,42.805,6.029,CST-1368DR,5050,6563,13896,0.467,551
2021-12-02T07:47:05,42.805,6.029,CST-1368DR,5050,6563,13896,0.467,551
2021-12-02T07:50:07,42.805,6.029,CST-1368DR,5050,6562,13895,0.467,551
2021-12-02T07:53:08,42.805,6.029,CST-1368DR,5050,6561,13893,0.468,551
2021-12-02T07:56:10,42.805,6.029,CST-1368DR,5050,6562,13893,0.468,551
2021-12-02T07:59:11,42.805,6.029,CST-1368DR,5050,6562,13895,0.467,551
2021-12-02T08:02:13,42.805,6.029,CST-1368DR,5050,6563,13895,0.467,551
2021-12-02T08:05:14,42.805,6.029,CST-1368DR,5050,6563,13895,0.467,551
2021-12-02T08:08:16,42.805,6.029,CST-1368DR,5050,6562,13895,0.467,550
2021-12-02T08:11:18,42.805,6.029,CST-1368DR,5050,6562,13894,0.467,551
2021-12-02T08:14:19,42.805,6.029,CST-1368DR,5050,6562,13894,0.467,551
2021-12-02T08:17:21,42.805,6.029,CST-1368DR,5050,6563,13896,0.467,551
2021-12-02T08:20:22,42.805,6.029,CST-1368DR,5050,6562,13894,0.467,551
2021-12-02T08:23:24,42.805,6.029,CST-1368DR,5050,6563,13896,0.467,551
2021-12-02T08:26:26,42.805,6.029,CST-1368DR,5050,6562,13895,0.467,551
2021-12-02T08:29:27,42.805,6.029,CST-1368DR,5050,6563,13895,0.467,551
2021-12-02T08:32:29,42.805,6.029,CST-1368DR,5050,6563,13896,0.467,551
2021-12-02T08:35:30,42.805,6.029,CST-1368DR,5050,6563,13895,0.467,551
2021-12-02T08:38:32,42.805,6.029,CST-1368DR,5050,6562,13895,0.467,551
2021-12-02T08:41:33,42.805,6.029,CST-1368DR,5050,6563,13895,0.467,551
2021-12-02T08:44:35,42.805,6.029,CST-1368DR,5050,6561,13892,0.468,551
2021-12-02T08:47:37,42.805,6.029,CST-1368DR,5050,6563,13895,0.467,551
2021-12-02T08:50:38,42.805,6.029,CST-1368DR,5050,6562,13895,0.467,551
2021-12-02T08:53:40,42.805,6.029,CST-1368DR,5050,6562,13894,0.467,551
2021-12-02T08:56:41,42.805,6.029,CST-1368DR,5050,6563,13896,0.467,551
2021-12-02T08:59:43,42.805,6.029,CST-1368DR,5050,6562,13894,0.467,551
2021-12-02T09:02:44,42.805,6.029,CST-1368DR,5050,6563,13895,0.467,551
2021-12-02T09:05:46,42.805,6.029,CST-1368DR,5050,6563,13895,0.467,551
2021-12-02T09:08:48,42.805,6.029,CST-1368DR,5050,6563,13895,0.467,551
2021-12-02T09:11:49,42.805,6.029,CST-1368DR,5050,6563,13895,0.467,551
2021-12-02T09:14:51,42.805,6.029,CST-1368DR,5050,6563,13896,0.467,551
2021-12-02T09:17:52,42.805,6.029,CST-1368DR,5050,6562,13894,0.467,551
2021-12-02T09:20:54,42.805,6.029,CST-1368DR,5050,6562,13893,0.468,551
2021-12-02T09:23:56,42.805,6.029,CST-1368DR,5050,6562,13895,0.467,551
2021-12-02T09:26:57,42.805,6.029,CST-1368DR,5050,6563,13895,0.467,551
2021-12-02T09:29:59,42.805,6.029,CST-1368DR,5050,6563,13896,0.467,551
2021-12-02T09:33:00,42.805,6.029,CST-1368DR,5050,6562,13895,0.467,550
2021-12-02T09:36:02,42.805,6.029,CST-1368DR,5050,6563,13896,0.467,551
2021-12-02T09:39:03,42.805,6.029,CST-1368DR,5050,6563,13895,0.467,551
2021-12-02T09:42:05,42.805,6.029,CST-1368DR,5050,6563,13896,0.467,551
2021-12-02T09:45:07,42.805,6.029,CST-1368DR,5050,6563,13896,0.467,551
2021-12-02T09:48:08,42.805,6.029,CST-1368DR,5050,6562,13894,0.467,551
2021-12-02T09:51:10,42.805,6.029,CST-1368DR,5050,6563,13896,0.467,551
2021-12-02T09:54:11,42.805,6.029,CST-1368DR,5050,6562,13894,0.467,551
2021-12-02T09:57:13,42.805,6.029,CST-1368DR,5050,6563,13896,0.467,551
2021-12-02T10:00:14,42.805,6.029,CST-1368DR,5050,6562,13894,0.467,551
2021-12-02T10:03:16,42.805,6.029,CST-1368DR,5050,6563,13895,0.467,551
2021-12-02T10:06:18,42.805,6.029,CST-1368DR,5050,6563,13896,0.467,551
2021-12-02T10:09:19,42.805,6.029,CST-1368DR,5050,6562,13894,0.467,551
2021-12-02T10:12:21,42.805,6.029,CST-1368DR,5050,6562,13895,0.467,551
2021-12-02T10:15:22,42.805,6.029,CST-1368DR,5050,6562,13894,0.467,551
2021-12-02T10:18:24,42.805,6.029,CST-1368DR,5050,6563,13896,0.467,551
2021-12-02T10:21:26,42.805,6.029,CST-1368DR,5050,6562,13893,0.468,551
2021-12-02T10:24:27,42.805,6.029,CST-1368DR,5050,6563,13896,0.467,551
2021-12-02T10:27:29,42.805,6.029,CST-1368DR,5050,6563,13896,0.467,551
2021-12-02T10:30:30,42.805,6.029,CST-1368DR,5050,6562,13895,0.467,551
2021-12-02T10:33:32,42.805,6.029,CST-1368DR,5050,6563,13896,0.467,551
2021-12-02T10:36:33,42.805,6.029,CST-1368DR,5050,6562,13894,0.467,551
2021-12-02T10:39:35,42.805,6.029,CST-1368DR,5049,6562,13896,0.467,551
2021-12-02T10:42:37,42.805,6.029,CST-1368DR,5049,6562,13897,0.466,551
2021-12-02T10:45:38,42.805,6.029,CST-1368DR,5049,6562,13896,0.467,551
2021-12-02T10:48:40,42.805,6.029,CST-1368DR,5049,6562,13897,0.466,551
2021-12-02T10:51:41,42.805,6.029,CST-1368DR,5050,6562,13894,0.467,551
2021-12-02T10:54:43,42.805,6.029,CST-1368DR,5049,6563,13898,0.466,551
2021-12-02T10:57:45,42.805,6.029,CST-1368DR,5049,6562,13896,0.467,551
2021-12-02T11:00:46,42.805,6.029,CST-1368DR,5049,6561,13895,0.467,551
2021-12-02T11:03:48,42.805,6.029,CST-1368DR,5049,6562,13897,0.466,551
2021-12-02T11:06:49,42.805,6.029,CST-1368DR,5049,6563,13898,0.466,551
2021-12-02T11:09:51,42.805,6.029,CST-1368DR,5049,6563,13898,0.466,551
2021-12-02T11:12:52,42.805,6.029,CST-1368DR,5049,6563,13899,0.466,551
2021-12-02T11:15:54,42.805,6.029,CST-1368DR,5050,6562,13894,0.467,551
2021-12-02T11:18:56,42.805,6.029,CST-1368DR,5049,6562,13897,0.466,551
2021-12-02T11:21:57,42.805,6.029,CST-1368DR,5050,6563,13896,0.467,551
2021-12-02T11:24:59,42.805,6.029,CST-1368DR,5049,6563,13898,0.466,551
2021-12-02T11:28:00,42.805,6.029,CST-1368DR,5049,6563,13898,0.466,551
2021-12-02T11:31:02,42.805,6.029,CST-1368DR,5049,6562,13897,0.466,551
2021-12-02T11:34:04,42.805,6.029,CST-1368DR,5049,6562,13897,0.466,551
2021-12-02T11:37:05,42.805,6.029,CST-1368DR,5049,6562,13897,0.466,551
2021-12-02T11:40:07,42.805,6.029,CST-1368DR,5049,6562,13897,0.466,551
2021-12-02T11:43:08,42.805,6.029,CST-1368DR,5049,6562,13896,0.467,551
2021-12-02T11:46:10,42.805,6.029,CST-1368DR,5049,6562,13896,0.467,551
2021-12-02T11:49:11,42.805,6.029,CST-1368DR,5049,6562,13897,0.466,551
2021-12-02T11:52:13,42.805,6.029,CST-1368DR,5049,6562,13897,0.466,551
2021-12-02T11:55:15,42.805,6.029,CST-1368DR,5049,6562,13897,0.466,551
2021-12-02T11:58:16,42.805,6.029,CST-1368DR,5049,6562,13897,0.466,551
2021-12-02T12:01:18,42.805,6.029,CST-1368DR,5049,6562,13896,0.467,551
2021-12-02T12:04:19,42.805,6.029,CST-1368DR,5049,6563,13898,0.466,551
2021-12-02T12:07:21,42.805,6.029,CST-1368DR,5049,6562,13897,0.466,551
2021-12-02T12:10:22,42.805,6.029,CST-1368DR,5049,6562,13897,0.466,551
2021-12-02T12:13:24,42.805,6.029,CST-1368DR,5049,6567,13908,0.463,551
2021-12-02T12:16:26,42.805,6.029,CST-1368DR,5049,6566,13906,0.464,551
2021-12-02T12:19:27,42.805,6.029,CST-1368DR,5049,6567,13907,0.464,551
2021-12-02T12:22:29,42.805,6.029,CST-1368DR,5049,6567,13906,0.464,551
2021-12-02T12:25:30,42.805,6.029,CST-1368DR,5049,6566,13905,0.464,551
2021-12-02T12:28:32,42.805,6.029,CST-1368DR,5049,6567,13906,0.464,551
2021-12-02T12:31:34,42.805,6.029,CST-1368DR,5049,6567,13906,0.464,551
2021-12-02T12:34:35,42.805,6.029,CST-1368DR,5049,6566,13905,0.464,551
2021-12-02T12:37:37,42.805,6.029,CST-1368DR,5049,6566,13906,0.464,551
2021-12-02T12:40:38,42.805,6.029,CST-1368DR,5049,6566,13905,0.464,551
2021-12-02T12:43:40,42.805,6.029,CST-1368DR,5049,6566,13906,0.464,551
2021-12-02T12:46:41,42.805,6.029,CST-1368DR,5049,6567,13907,0.464,551
2021-12-02T12:49:43,42.805,6.029,CST-1368DR,5049,6567,13906,0.464,551
2021-12-02T12:52:45,42.805,6.029,CST-1368DR,5049,6567,13907,0.464,551
2021-12-02T12:55:46,42.805,6.029,CST-1368DR,5049,6566,13906,0.464,551
2021-12-02T12:58:48,42.805,6.029,CST-1368DR,5049,6567,13907,0.464,551
2021-12-02T13:01:49,42.805,6.029,CST-1368DR,5049,6567,13907,0.464,551
2021-12-02T13:04:51,42.805,6.029,CST-1368DR,5049,6567,13907,0.464,551
2021-12-02T13:07:52,42.805,6.029,CST-1368DR,5049,6567,13907,0.464,551
2021-12-02T13:10:54,42.805,6.029,CST-1368DR,5049,6566,13906,0.464,551
2021-12-02T13:13:56,42.805,6.029,CST-1368DR,5049,6568,13909,0.463,551
2021-12-02T13:16:57,42.805,6.029,CST-1368DR,5049,6566,13905,0.464,551
2021-12-02T13:19:59,42.805,6.029,CST-1368DR,5049,6567,13907,0.464,551
2021-12-02T13:23:00,42.805,6.029,CST-1368DR,5049,6567,13907,0.464,551
2021-12-02T13:26:02,42.805,6.029,CST-1368DR,5049,6567,13908,0.463,551
2021-12-02T13:29:04,42.805,6.029,CST-1368DR,5049,6567,13907,0.464,551
2021-12-02T13:32:05,42.805,6.029,CST-1368DR,5049,6567,13906,0.464,551
2021-12-02T13:35:07,42.805,6.029,CST-1368DR,5049,6564,13902,0.465,551
2021-12-02T13:38:08,42.805,6.029,CST-1368DR,5049,6566,13905,0.464,551
2021-12-02T13:41:10,42.805,6.029,CST-1368DR,5049,6567,13906,0.464,551
2021-12-02T13:44:11,42.805,6.029,CST-1368DR,5049,6566,13905,0.464,551
2021-12-02T13:47:13,42.805,6.029,CST-1368DR,5049,6566,13905,0.464,551
2021-12-02T13:50:15,42.805,6.029,CST-1368DR,5049,6566,13906,0.464,551
2021-12-02T13:53:16,42.805,6.029,CST-1368DR,5049,6566,13906,0.464,551
2021-12-02T13:56:18,42.805,6.029,CST-1368DR,5049,6566,13905,0.464,551
2021-12-02T13:59:19,42.805,6.029,CST-1368DR,5049,6567,13906,0.464,551
2021-12-02T14:02:21,42.805,6.029,CST-1368DR,5049,6565,13904,0.464,551
2021-12-02T14:05:22,42.805,6.029,CST-1368DR,5049,6566,13906,0.464,551
2021-12-02T14:08:24,42.805,6.029,CST-1368DR,5049,6567,13906,0.464,551
2021-12-02T14:11:26,42.805,6.029,CST-1368DR,5049,6567,13907,0.464,551
2021-12-02T14:14:27,42.805,6.029,CST-1368DR,5049,6566,13905,0.464,551
2021-12-02T14:17:29,42.805,6.029,CST-1368DR,5049,6566,13906,0.464,551
2021-12-02T14:20:30,42.805,6.029,CST-1368DR,5049,6564,13901,0.465,551
2021-12-02T14:23:32,42.805,6.029,CST-1368DR,5049,6566,13905,0.464,551
2021-12-02T14:26:34,42.805,6.029,CST-1368DR,5049,6567,13907,0.464,551
2021-12-02T14:29:35,42.805,6.029,CST-1368DR,5049,6567,13906,0.464,551
2021-12-02T14:32:37,42.805,6.029,CST-1368DR,5049,6567,13906,0.464,551
2021-12-02T14:35:38,42.805,6.029,CST-1368DR,5049,6567,13906,0.464,551
2021-12-02T14:38:40,42.805,6.029,CST-1368DR,5049,6567,13908,0.463,550
2021-12-02T14:41:41,42.805,6.029,CST-1368DR,5049,6566,13905,0.464,551
2021-12-02T14:44:43,42.805,6.029,CST-1368DR,5049,6567,13906,0.464,551
2021-12-02T14:47:45,42.805,6.029,CST-1368DR,5049,6566,13904,0.464,551
2021-12-02T14:50:46,42.805,6.029,CST-1368DR,5049,6567,13906,0.464,551
2021-12-02T14:53:48,42.805,6.029,CST-1368DR,5049,6567,13906,0.464,551
2021-12-02T14:56:49,42.805,6.029,CST-1368DR,5049,6567,13906,0.464,551
2021-12-02T14:59:51,42.805,6.029,CST-1368DR,5049,6567,13906,0.464,551
2021-12-02T15:02:53,42.805,6.029,CST-1368DR,5049,6566,13905,0.464,551
2021-12-02T15:05:54,42.805,6.029,CST-1368DR,5049,6567,13908,0.463,551
2021-12-02T15:08:56,42.805,6.029,CST-1368DR,5049,6567,13906,0.464,551
2021-12-02T15:11:57,42.805,6.029,CST-1368DR,5049,6566,13904,0.464,551
2021-12-02T15:14:59,42.805,6.029,CST-1368DR,5049,6564,13902,0.465,551
2021-12-02T15:18:00,42.805,6.029,CST-1368DR,5049,6566,13905,0.464,551
2021-12-02T15:21:02,42.805,6.029,CST-1368DR,5049,6566,13906,0.464,551
2021-12-02T15:24:04,42.805,6.029,CST-1368DR,5049,6567,13906,0.464,551
2021-12-02T15:27:05,42.805,6.029,CST-1368DR,5049,6566,13906,0.464,551
2021-12-02T15:30:07,42.805,6.029,CST-1368DR,5049,6566,13906,0.464,551
2021-12-02T15:33:08,42.805,6.029,CST-1368DR,5049,6566,13905,0.464,551
2021-12-02T15:36:10,42.805,6.029,CST-1368DR,5049,6566,13905,0.464,551
2021-12-02T15:39:12,42.805,6.029,CST-1368DR,5049,6566,13906,0.464,551
2021-12-02T15:42:13,42.805,6.029,CST-1368DR,5049,6566,13905,0.464,551
2021-12-02T15:45:15,42.805,6.029,CST-1368DR,5049,6566,13904,0.464,551
2021-12-02T15:48:16,42.805,6.029,CST-1368DR,5049,6566,13905,0.464,551
2021-12-02T15:51:18,42.805,6.029,CST-1368DR,5049,6566,13905,0.464,551
2021-12-02T15:54:19,42.805,6.029,CST-1368DR,5049,6566,13904,0.464,551
2021-12-02T15:57:21,42.805,6.029,CST-1368DR,5049,6566,13905,0.464,551
2021-12-02T16:00:23,42.805,6.029,CST-1368DR,5049,6566,13905,0.464,551
2021-12-02T16:03:24,42.805,6.029,CST-1368DR,5049,6566,13905,0.464,551
2021-12-02T16:06:26,42.805,6.029,CST-1368DR,5049,6566,13906,0.464,551
2021-12-02T16:09:27,42.805,6.029,CST-1368DR,5049,6566,13905,0.464,551
2021-12-02T16:12:29,42.805,6.029,CST-1368DR,5049,6566,13905,0.464,551
2021-12-02T16:15:30,42.805,6.029,CST-1368DR,5049,6566,13904,0.464,551
2021-12-02T16:18:32,42.805,6.029,CST-1368DR,5049,6566,13905,0.464,551
2021-12-02T16:21:34,42.805,6.029,CST-1368DR,5049,6565,13904,0.464,551
2021-12-02T16:24:35,42.805,6.029,CST-1368DR,5049,6566,13906,0.464,551
2021-12-02T16:27:37,42.805,6.029,CST-1368DR,5049,6566,13904,0.464,551
2021-12-02T16:30:38,42.805,6.029,CST-1368DR,5049,6566,13906,0.464,551
2021-12-02T16:33:40,42.805,6.029,CST-1368DR,5049,6566,13905,0.464,551
2021-12-02T16:36:42,42.805,6.029,CST-1368DR,5049,6566,13904,0.464,551
2021-12-02T16:39:43,42.805,6.029,CST-1368DR,5049,6566,13905,0.464,551
2021-12-02T16:42:45,42.805,6.029,CST-1368DR,5049,6566,13905,0.464,551
2021-12-02T16:45:46,42.805,6.029,CST-1368DR,5049,6566,13904,0.464,551
2021-12-02T16:48:48,42.805,6.029,CST-1368DR,5049,6566,13905,0.464,551
2021-12-02T16:51:49,42.805,6.029,CST-1368DR,5049,6566,13905,0.464,551